Retour au catalogue

STARLINK-3372

ActifCommunicationsVLEO
NORAD 51113·PAYLOAD·🇺🇸 United States

Lancé Jan 19, 2022 depuis Cape Canaveral Space Force Station

Loading…

Prochains Passages (prochaines 24 heures)

TLE

FraisSource: CelesTrak SupGP

Époque: Sep 15, 2026, 02:46 UTC

1 51113C 22005K   26258.11576389  .00026625  00000+0  76183-3 0  2589
2 51113  53.1587 151.0603 0001339  88.0598 199.8099 15.35382718    11

Suivez STARLINK-3372 en temps réel avec AllMySat

Download on the App Store